Location: Góry Miechowskie
(50.3599°N, 20.1803°E)
Time: 23:07:57
(UTC+00:00)

S-56A Canister/Altair - Pass Details

Date: 17 September 2024
Orbit: 636 x 2487 km, 38.9° (Epoch: 09 October)

Event Time Altitude Azimuth Distance (km) Brightness Sun altitude
Rises 18:24:21 0° 246° (WSW) 3,343 11.5 -15.8°
Reaches altitude 10° 18:26:43 10° 236° (SW) 2,580 10.6 -16.1°
Maximum altitude 18:32:12 34° 173° (S) 1,790 9.1 -16.9°
Enters shadow 18:35:52 23° 131° (SE) 2,467 9.5 -17.4°
Drops below altitude 10° 18:39:54 10° 114° (ESE) 3,676 - -18.0°
Sets 18:43:58 0° 106° (ESE) 4,989 - -18.6°
